Location: Lourdes
(43.1000°N, 0.0500°W)
Time: 05:34:07
(UTC+00:00)

Cosmos 1867 - Pass Details

Date: 30 November 2020
Orbit: 775 x 800 km, 65.0° (Epoch: 27 January)

Event Time Altitude Azimuth Distance (km) Brightness Sun altitude
Rises 17:01:03 0° 223° (SW) 3,264 8.2 -6.5°
Reaches altitude 10° 17:03:28 10° 227° (SW) 2,343 7.4 -6.9°
Maximum altitude 17:08:48 60° 307° (NW) 901 4.1 -7.8°
Drops below altitude 10° 17:14:12 10° 28° (NNE) 2,372 5.6 -8.7°
Enters shadow 17:15:38 - 30° (NNE) 2,909 6.0 -8.9°
